Portada
METAR-TAF:

METAR-TAF

Aeroports :

Illa Lavan, Iran

latitud: 26-48-37N, longitud: 53-21-22E, altitud: 23 m

Observació

L'informe es va fer fa 4 hores i 3 minuts, a les 15:00 UTC
Vent 2 kt amb direcció variable
Temperatura 28°C
Humitat 58%
Pressió 1013 hPa
Visibilitat: 5000 m
calitja

METAR: OIBV 301500Z VRB02KT 5000 HZ NSC 28/19 Q1013

Hora: 22:33 (19:03 UTC)


TAF: manca

Observacions i pronòstics meteorològics de més de 4000 aeroports (METAR i TAF).

Les estacions disponibles són els punts grocs i vermells al mapa.

Posi el ratolí al punt desitjat per veure el nom de l'estació.

Feu clic per veure les observacions i els pronòstics meteorològics.

Per canviar el mapa: feu clic els botons verds amb una creu de color negre per apropar; al botó verd amb un guió per allunyar la imatge; o en les fletxes verdes per a mapes adjacents.


METAR-TAF: